Time,TemperatureF,DewpointF,PressureIn,WindDirection,WindDirectionDegrees,WindSpeedMPH,WindSpeedGustMPH,Humidity,HourlyPrecipIn,Conditions,Clouds,dailyrainin,SoftwareType,DateUTC
2013-09-29 00:03:00,57.2,33.1,30.06,SE,135,0.0,0.0,40,0.00,CLR,CLR,0.00,WeatherDisplay:10.37,2013-09-29 04:03:00,
2013-09-29 00:18:00,57.0,33.5,30.06,NE,45,0.0,1.0,41,0.00,CLR,CLR,0.00,WeatherDisplay:10.37,2013-09-29 04:18:00,
2013-09-29 00:33:00,56.3,31.6,30.03,NE,45,0.0,0.0,39,0.00,CLR,CLR,0.00,WeatherDisplay:10.37,2013-09-29 04:33:00,
2013-09-29 00:48:00,55.6,30.4,30.03,NE,45,0.0,0.0,38,0.00,CLR,CLR,0.00,WeatherDisplay:10.37,2013-09-29 04:48:00,
2013-09-29 01:03:00,55.4,31.5,30.03,NE,45,0.0,0.0,40,0.00,CLR,CLR,0.00,WeatherDisplay:10.37,2013-09-29 05:03:00,
2013-09-29 01:18:00,55.2,32.5,30.06,ENE,72,0.0,0.0,42,0.00,CLR,CLR,0.00,WeatherDisplay:10.37,2013-09-29 05:18:00,
2013-09-29 01:33:00,55.2,33.1,30.06,East,90,0.0,0.0,43,0.00,CLR,CLR,0.00,WeatherDisplay:10.37,2013-09-29 05:33:00,
2013-09-29 01:48:00,55.2,33.1,30.06,East,90,0.0,0.0,43,0.00,CLR,CLR,0.00,WeatherDisplay:10.37,2013-09-29 05:48:00,
2013-09-29 02:03:00,55.4,33.3,30.06,East,90,0.0,0.0,43,0.00,CLR,CLR,0.00,WeatherDisplay:10.37,2013-09-29 06:03:00,
2013-09-29 02:18:00,55.6,34.6,30.06,East,90,0.0,0.0,45,0.00,CLR,CLR,0.00,WeatherDisplay:10.37,2013-09-29 06:18:00,
2013-09-29 02:33:00,55.6,34.0,30.06,East,90,0.0,0.0,44,0.00,CLR,CLR,0.00,WeatherDisplay:10.37,2013-09-29 06:33:00,
2013-09-29 02:48:00,55.9,35.4,30.06,SE,139,0.0,1.0,46,0.00,CLR,CLR,0.00,WeatherDisplay:10.37,2013-09-29 06:48:00,
2013-09-29 03:03:00,56.5,35.9,30.06,SSE,160,1.0,1.0,46,0.00,CLR,CLR,0.00,WeatherDisplay:10.37,2013-09-29 07:03:00,
2013-09-29 03:18:00,57.0,36.4,30.06,South,180,1.0,2.0,46,0.00,CLR,CLR,0.00,WeatherDisplay:10.37,2013-09-29 07:18:00,
2013-09-29 03:19:00,58.2,37.5,30.06,SSW,198,2.0,5.0,46,0.00,OVC,OVC,0.00,WeatherDisplay:10.37,2013-09-29 07:19:00,
2013-09-29 03:20:00,58.2,37.5,30.06,SSW,198,2.0,0.0,46,0.00,OVC,OVC,0.00,WeatherDisplay:10.37,2013-09-29 07:20:00,
2013-09-29 03:21:00,58.2,37.5,30.06,SSW,198,2.0,0.0,46,0.00,OVC,OVC,0.00,WeatherDisplay:10.37,2013-09-29 07:21:00,
2013-09-29 03:22:00,58.2,37.5,30.06,SSW,198,2.0,0.0,46,0.00,OVC,OVC,0.00,WeatherDisplay:10.37,2013-09-29 07:22:00,
2013-09-29 03:23:00,58.2,37.5,30.06,SSW,198,2.0,0.0,46,0.00,OVC,OVC,0.00,WeatherDisplay:10.37,2013-09-29 07:23:00,
2013-09-29 03:24:00,58.2,37.5,30.06,SSW,198,2.0,0.0,46,0.00,OVC,OVC,0.00,WeatherDisplay:10.37,2013-09-29 07:24:00,
2013-09-29 03:25:00,58.2,37.5,30.06,SSW,198,2.0,0.0,46,0.00,OVC,OVC,0.00,WeatherDisplay:10.37,2013-09-29 07:25:00,
2013-09-29 03:26:00,58.2,37.5,30.06,SSW,198,2.0,0.0,46,0.00,OVC,OVC,0.00,WeatherDisplay:10.37,2013-09-29 07:26:00,
2013-09-29 03:27:00,58.2,37.5,30.06,SSW,198,2.0,0.0,46,0.00,OVC,OVC,0.00,WeatherDisplay:10.37,2013-09-29 07:27:00,
2013-09-29 03:28:00,58.2,37.5,30.06,SSW,198,2.0,0.0,46,0.00,OVC,OVC,0.00,WeatherDisplay:10.37,2013-09-29 07:28:00,
2013-09-29 03:29:00,58.2,37.5,30.06,SSW,198,2.0,0.0,46,0.00,OVC,OVC,0.00,WeatherDisplay:10.37,2013-09-29 07:29:00,
2013-09-29 03:30:00,58.2,37.5,30.06,SSW,198,2.0,0.0,46,0.00,OVC,OVC,0.00,WeatherDisplay:10.37,2013-09-29 07:30:00,
2013-09-29 03:31:00,58.2,37.5,30.06,SSW,198,2.0,0.0,46,0.00,OVC,OVC,0.00,WeatherDisplay:10.37,2013-09-29 07:31:00,
2013-09-29 03:32:00,58.2,37.5,30.06,SSW,198,2.0,0.0,46,0.00,OVC,OVC,0.00,WeatherDisplay:10.37,2013-09-29 07:32:00,
2013-09-29 03:33:00,58.2,37.5,30.06,SSW,198,2.0,0.0,46,0.00,OVC,OVC,0.00,WeatherDisplay:10.37,2013-09-29 07:33:00,
2013-09-29 08:18:00,57.0,36.4,30.06,NE,45,2.5,2.5,46,0.00,CLR,,0.00,WeatherDisplay:10.37,2013-09-29 12:18:00,
2013-09-29 08:19:00,57.0,36.4,30.06,South,180,2.3,0.0,46,0.00,SCT,,0.00,WeatherDisplay:10.37,2013-09-29 12:19:00,
2013-09-29 08:20:00,57.4,57.4,30.06,SE,135,2.3,0.0,100,0.00,SCT,,0.00,WeatherDisplay:10.37,2013-09-29 12:20:00,
2013-09-29 08:25:00,57.7,37.1,30.06,SSW,202,3.5,3.5,46,0.00,SCT,,0.00,WeatherDisplay:10.37,2013-09-29 12:25:00,
2013-09-29 08:30:00,58.1,37.4,30.06,SW,225,4.6,4.6,46,0.00,SCT,,0.00,WeatherDisplay:10.37,2013-09-29 12:30:00,
2013-09-29 08:35:00,58.5,37.7,30.06,SSW,202,4.6,4.6,46,0.00,OVC,,0.00,WeatherDisplay:10.37,2013-09-29 12:35:00,
2013-09-29 08:40:00,58.8,38.1,30.06,SW,225,3.3,3.3,46,0.00,OVC,,0.00,WeatherDisplay:10.37,2013-09-29 12:40:00,
2013-09-29 08:45:00,59.2,38.4,30.06,West,270,3.5,3.5,46,0.00,OVC,,0.00,WeatherDisplay:10.37,2013-09-29 12:45:00,
2013-09-29 08:50:00,59.4,38.6,30.06,SW,225,3.5,3.5,46,0.00,OVC,,0.00,WeatherDisplay:10.37,2013-09-29 12:50:00,
2013-09-29 08:55:00,59.4,58.2,30.06,South,180,3.5,3.5,96,0.00,OVC,,0.00,WeatherDisplay:10.37,2013-09-29 12:55:00,
2013-09-29 09:00:00,59.5,58.1,30.06,SW,225,4.6,4.6,95,0.00,OVC,,0.00,WeatherDisplay:10.37,2013-09-29 13:00:00,
2013-09-29 09:05:00,59.7,58.0,30.09,SW,225,3.5,3.5,94,0.00,OVC,,0.00,WeatherDisplay:10.37,2013-09-29 13:05:00,
2013-09-29 09:10:00,59.9,57.9,30.09,SW,225,5.8,5.8,93,0.00,OVC,,0.00,WeatherDisplay:10.37,2013-09-29 13:10:00,
2013-09-29 09:15:00,60.3,58.2,30.09,South,180,3.5,3.5,93,0.00,OVC,,0.00,WeatherDisplay:10.37,2013-09-29 13:15:00,
2013-09-29 09:20:00,60.8,58.5,30.09,South,180,4.3,4.3,92,0.00,OVC,,0.00,WeatherDisplay:10.37,2013-09-29 13:20:00,
2013-09-29 09:25:00,61.5,58.9,30.09,South,180,5.8,5.8,91,0.00,OVC,,0.00,WeatherDisplay:10.37,2013-09-29 13:25:00,
2013-09-29 09:30:00,61.9,58.9,30.09,South,180,5.8,5.8,90,0.00,OVC,,0.00,WeatherDisplay:10.37,2013-09-29 13:30:00,
2013-09-29 09:35:00,62.4,59.1,30.09,South,180,5.8,5.8,89,0.00,OVC,,0.00,WeatherDisplay:10.37,2013-09-29 13:35:00,
2013-09-29 09:40:00,62.8,59.5,30.09,SW,225,6.9,6.9,89,0.00,OVC,,0.00,WeatherDisplay:10.37,2013-09-29 13:40:00,
2013-09-29 09:45:00,63.1,57.2,30.09,South,180,5.8,5.8,81,0.00,OVC,,0.00,WeatherDisplay:10.37,2013-09-29 13:45:00,
2013-09-29 09:50:00,63.5,57.6,30.12,SW,225,5.8,5.8,81,0.00,OVC,,0.00,WeatherDisplay:10.37,2013-09-29 13:50:00,
2013-09-29 09:55:00,63.7,57.0,30.12,SW,225,9.2,9.2,79,0.00,OVC,,0.00,WeatherDisplay:10.37,2013-09-29 13:55:00,
2013-09-29 10:00:00,63.7,57.0,30.12,SSW,202,8.1,8.1,79,0.00,OVC,,0.00,WeatherDisplay:10.37,2013-09-29 14:00:00,
2013-09-29 10:05:00,63.9,57.2,30.09,SW,225,8.1,8.1,79,0.00,OVC,,0.00,WeatherDisplay:10.37,2013-09-29 14:05:00,
2013-09-29 10:10:00,64.0,57.4,30.09,South,180,5.8,5.8,79,0.00,OVC,,0.00,WeatherDisplay:10.37,2013-09-29 14:10:00,
2013-09-29 10:15:00,63.9,56.9,30.09,South,180,6.9,6.9,78,0.00,OVC,,0.00,WeatherDisplay:10.37,2013-09-29 14:15:00,
2013-09-29 10:20:00,63.9,56.9,30.09,WSW,248,6.2,6.2,78,0.00,-RA,,0.00,WeatherDisplay:10.37,2013-09-29 14:20:00,
2013-09-29 10:25:00,63.9,56.1,30.09,SSW,202,8.1,8.1,76,0.00,-RA,,0.00,WeatherDisplay:10.37,2013-09-29 14:25:00,
2013-09-29 10:30:00,64.0,57.0,30.09,SW,225,4.6,4.6,78,0.00,-RA,,0.00,WeatherDisplay:10.37,2013-09-29 14:30:00,
2013-09-29 10:35:00,64.0,57.0,30.12,SSW,202,5.8,5.8,78,0.00,-RA,,0.00,WeatherDisplay:10.37,2013-09-29 14:35:00,
2013-09-29 10:40:00,63.9,56.1,30.12,SW,225,5.8,5.8,76,0.00,-RA,,0.00,WeatherDisplay:10.37,2013-09-29 14:40:00,
2013-09-29 10:45:00,63.9,56.1,30.12,South,180,5.8,5.8,76,0.00,-RA,,0.00,WeatherDisplay:10.37,2013-09-29 14:45:00,
2013-09-29 10:50:00,64.0,56.3,30.12,SSW,202,5.8,5.8,76,0.00,-RA,,0.00,WeatherDisplay:10.37,2013-09-29 14:50:00,
2013-09-29 10:55:00,64.4,56.3,30.12,South,180,9.2,9.2,75,0.00,-RA,,0.00,WeatherDisplay:10.37,2013-09-29 14:55:00,
2013-09-29 11:00:00,64.4,56.3,30.12,SW,225,6.4,6.4,75,0.00,-RA,,0.00,WeatherDisplay:10.37,2013-09-29 15:00:00,
2013-09-29 11:05:00,64.6,56.5,30.12,SW,225,3.5,3.5,75,0.00,-RA,,0.00,WeatherDisplay:10.37,2013-09-29 15:05:00,
2013-09-29 11:10:00,64.8,56.6,30.12,SW,225,6.9,6.9,75,0.00,-RA,,0.00,WeatherDisplay:10.37,2013-09-29 15:10:00,
2013-09-29 11:15:00,65.5,56.6,30.12,SSW,202,5.8,5.8,73,0.00,-RA,,0.00,WeatherDisplay:10.37,2013-09-29 15:15:00,
2013-09-29 11:20:00,65.8,56.9,30.09,South,180,6.9,6.9,73,0.00,OVC,,0.00,WeatherDisplay:10.37,2013-09-29 15:20:00,
2013-09-29 11:25:00,66.6,57.3,30.09,SW,225,8.1,8.1,72,0.00,OVC,,0.00,WeatherDisplay:10.37,2013-09-29 15:25:00,
2013-09-29 11:30:00,66.7,57.4,30.09,South,180,10.4,10.4,72,0.00,OVC,,0.00,WeatherDisplay:10.37,2013-09-29 15:30:00,
2013-09-29 11:35:00,67.3,57.9,30.09,SW,225,4.7,4.7,72,0.00,OVC,,0.00,WeatherDisplay:10.37,2013-09-29 15:35:00,
2013-09-29 11:40:00,67.5,58.1,30.09,SSW,202,8.1,8.1,72,0.00,OVC,,0.00,WeatherDisplay:10.37,2013-09-29 15:40:00,
2013-09-29 11:45:00,67.5,58.1,30.09,SSW,202,6.9,6.9,72,0.00,OVC,,0.00,WeatherDisplay:10.37,2013-09-29 15:45:00,
2013-09-29 11:50:00,67.5,58.1,30.09,SW,225,6.9,6.9,72,0.00,OVC,,0.00,WeatherDisplay:10.37,2013-09-29 15:50:00,
2013-09-29 11:55:00,68.0,58.6,30.09,WSW,248,5.8,5.9,72,0.00,OVC,,0.00,WeatherDisplay:10.37,2013-09-29 15:55:00,
2013-09-29 12:00:00,68.4,59.0,30.09,SW,225,15.0,15.0,72,0.00,OVC,,0.00,WeatherDisplay:10.37,2013-09-29 16:00:00,
2013-09-29 12:05:00,69.1,59.7,30.09,WSW,248,8.1,8.1,72,0.00,OVC,,0.00,WeatherDisplay:10.37,2013-09-29 16:05:00,
2013-09-29 12:10:00,68.5,58.4,30.09,SW,225,11.5,11.5,70,0.00,OVC,,0.00,WeatherDisplay:10.37,2013-09-29 16:10:00,
2013-09-29 12:15:00,68.7,59.3,30.09,South,180,9.2,9.2,72,0.00,OVC,,0.00,WeatherDisplay:10.37,2013-09-29 16:15:00,
2013-09-29 12:20:00,69.1,59.7,30.09,WSW,248,9.8,9.8,72,0.00,OVC,,0.00,WeatherDisplay:10.37,2013-09-29 16:20:00,
2013-09-29 12:25:00,68.5,58.4,30.09,West,270,10.4,10.4,70,0.00,OVC,,0.00,WeatherDisplay:10.37,2013-09-29 16:25:00,
2013-09-29 12:30:00,68.4,58.2,30.09,WSW,248,11.5,11.5,70,0.00,OVC,,0.00,WeatherDisplay:10.37,2013-09-29 16:30:00,
2013-09-29 12:35:00,68.2,58.0,30.09,South,180,11.5,11.5,70,0.00,OVC,,0.00,WeatherDisplay:10.37,2013-09-29 16:35:00,
2013-09-29 12:40:00,68.4,58.2,30.09,South,180,8.1,8.1,70,0.00,OVC,,0.00,WeatherDisplay:10.37,2013-09-29 16:40:00,
2013-09-29 12:45:00,68.4,58.2,30.09,SW,225,10.4,10.4,70,0.00,OVC,,0.00,WeatherDisplay:10.37,2013-09-29 16:45:00,
2013-09-29 12:50:00,68.4,58.2,30.09,South,180,9.2,9.2,70,0.00,OVC,,0.00,WeatherDisplay:10.37,2013-09-29 16:50:00,
2013-09-29 12:55:00,68.5,58.4,30.09,South,180,5.8,5.8,70,0.00,OVC,,0.00,WeatherDisplay:10.37,2013-09-29 16:55:00,
2013-09-29 13:00:00,68.5,58.4,30.09,SSW,202,6.4,6.4,70,0.00,OVC,,0.00,WeatherDisplay:10.37,2013-09-29 17:00:00,
2013-09-29 13:05:00,68.5,58.4,30.09,South,180,5.8,5.8,70,0.00,-RA,,0.00,WeatherDisplay:10.37,2013-09-29 17:05:00,
2013-09-29 13:10:00,68.0,57.8,30.09,SW,225,8.1,8.1,70,0.00,-RA,,0.00,WeatherDisplay:10.37,2013-09-29 17:10:00,
2013-09-29 13:15:00,67.6,57.5,30.09,WSW,248,6.9,6.9,70,0.00,-RA,,0.00,WeatherDisplay:10.37,2013-09-29 17:15:00,
2013-09-29 13:20:00,67.6,57.5,30.09,South,180,6.9,6.9,70,0.00,-RA,,0.00,WeatherDisplay:10.37,2013-09-29 17:20:00,
2013-09-29 13:25:00,67.5,57.3,30.09,SW,225,5.8,5.8,70,0.00,-RA,,0.00,WeatherDisplay:10.37,2013-09-29 17:25:00,
2013-09-29 13:30:00,67.3,57.2,30.09,SW,225,5.8,5.8,70,0.00,-RA,,0.00,WeatherDisplay:10.37,2013-09-29 17:30:00,
2013-09-29 13:35:00,66.9,57.6,30.09,WSW,248,5.4,5.4,72,0.00,-RA,,0.00,WeatherDisplay:10.37,2013-09-29 17:35:00,
2013-09-29 13:40:00,66.6,57.3,30.09,West,270,4.6,4.6,72,0.00,-RA,,0.00,WeatherDisplay:10.37,2013-09-29 17:40:00,
2013-09-29 13:45:00,66.2,56.9,30.09,SW,225,4.6,4.6,72,0.00,-RA,,0.00,WeatherDisplay:10.37,2013-09-29 17:45:00,
2013-09-29 13:50:00,66.0,57.1,30.06,South,180,4.9,4.9,73,0.00,-RA,,0.00,WeatherDisplay:10.37,2013-09-29 17:50:00,
2013-09-29 13:55:00,65.1,56.2,30.06,SW,225,4.6,4.6,73,0.00,-RA,,0.00,WeatherDisplay:10.37,2013-09-29 17:55:00,
2013-09-29 14:00:00,64.4,55.6,30.06,WSW,248,4.6,4.7,73,0.00,-RA,,0.00,WeatherDisplay:10.37,2013-09-29 18:00:00,
2013-09-29 14:05:00,64.4,55.6,30.09,SW,225,4.6,4.6,73,0.00,-RA,,0.00,WeatherDisplay:10.37,2013-09-29 18:05:00,
2013-09-29 14:10:00,64.2,56.5,30.09,South,180,3.5,3.5,76,0.00,-RA,,0.00,WeatherDisplay:10.37,2013-09-29 18:10:00,
2013-09-29 14:15:00,64.0,56.3,30.09,SW,225,2.3,2.3,76,0.00,-RA,,0.00,WeatherDisplay:10.37,2013-09-29 18:15:00,
2013-09-29 14:20:00,63.7,56.7,30.06,SW,225,2.3,2.3,78,0.00,-RA,,0.00,WeatherDisplay:10.37,2013-09-29 18:20:00,
2013-09-29 14:25:00,63.7,56.7,30.06,SSW,202,1.4,1.4,78,0.00,-RA,,0.00,WeatherDisplay:10.37,2013-09-29 18:25:00,
2013-09-29 14:30:00,63.5,56.9,30.06,SW,225,1.2,1.2,79,0.04,-RA,,0.04,WeatherDisplay:10.37,2013-09-29 18:30:00,
2013-09-29 14:35:00,63.5,56.9,30.03,SW,225,0.0,0.0,79,0.04,-RA,,0.04,WeatherDisplay:10.37,2013-09-29 18:35:00,
2013-09-29 14:40:00,63.5,56.9,30.03,WSW,248,0.0,0.0,79,0.04,-RA,,0.04,WeatherDisplay:10.37,2013-09-29 18:40:00,
2013-09-29 14:46:00,63.1,57.2,30.03,NW,315,2.3,0.0,81,0.04,-RA,,0.04,WeatherDisplay:10.37,2013-09-29 18:46:00,
2013-09-29 14:51:00,63.1,57.2,30.03,NE,45,1.2,1.2,81,0.08,-RA,,0.08,WeatherDisplay:10.37,2013-09-29 18:51:00,
2013-09-29 14:56:00,63.0,58.4,30.03,WNW,292,2.3,2.3,85,0.08,-RA,,0.08,WeatherDisplay:10.37,2013-09-29 18:56:00,
2013-09-29 15:01:00,62.8,57.9,30.03,SSW,202,2.3,2.3,84,0.08,-RA,,0.08,WeatherDisplay:10.37,2013-09-29 19:01:00,
2013-09-29 15:06:00,62.8,58.5,30.06,West,270,1.2,0.0,86,0.08,-RA,,0.08,WeatherDisplay:10.37,2013-09-29 19:06:00,
2013-09-29 15:11:00,62.4,59.4,30.06,SW,225,2.3,2.3,90,0.08,-RA,,0.08,WeatherDisplay:10.37,2013-09-29 19:11:00,
2013-09-29 15:16:00,62.1,59.7,30.06,SW,225,3.5,3.5,92,0.08,-RA,,0.08,WeatherDisplay:10.37,2013-09-29 19:16:00,
2013-09-29 15:21:00,62.2,59.3,30.06,South,180,1.2,1.2,90,0.08,-RA,,0.08,WeatherDisplay:10.37,2013-09-29 19:21:00,
2013-09-29 15:26:00,62.6,59.6,30.06,SW,225,2.3,2.3,90,0.08,-RA,,0.08,WeatherDisplay:10.37,2013-09-29 19:26:00,
2013-09-29 15:31:00,62.6,59.6,30.06,SW,225,2.3,2.3,90,0.04,OVC,,0.08,WeatherDisplay:10.37,2013-09-29 19:31:00,
2013-09-29 15:36:00,62.8,59.8,30.06,SW,225,2.3,2.4,90,0.04,OVC,,0.08,WeatherDisplay:10.37,2013-09-29 19:36:00,
2013-09-29 15:41:00,62.8,59.8,30.06,South,180,3.5,3.5,90,0.04,OVC,,0.08,WeatherDisplay:10.37,2013-09-29 19:41:00,
2013-09-29 15:46:00,63.1,60.2,30.06,SW,225,3.5,3.5,90,0.04,OVC,,0.08,WeatherDisplay:10.37,2013-09-29 19:46:00,
2013-09-29 15:48:00,63.0,60.0,30.06,SW,225,3.1,3.1,90,0.04,OVC,,0.08,WeatherDisplay:10.37,2013-09-29 19:48:00,
2013-09-29 15:53:00,63.1,60.2,30.06,South,180,2.4,2.4,90,0.00,OVC,,0.08,WeatherDisplay:10.37,2013-09-29 19:53:00,
2013-09-29 15:58:00,63.5,60.2,30.06,SE,135,1.2,0.0,89,0.00,OVC,,0.08,WeatherDisplay:10.37,2013-09-29 19:58:00,
2013-09-29 16:03:00,63.5,60.2,30.06,West,270,2.2,2.2,89,0.00,OVC,,0.08,WeatherDisplay:10.37,2013-09-29 20:03:00,
2013-09-29 16:08:00,63.7,60.4,30.06,SSE,158,2.0,0.0,89,0.00,OVC,,0.08,WeatherDisplay:10.37,2013-09-29 20:08:00,
2013-09-29 16:13:00,63.9,60.6,30.06,SW,225,2.2,2.2,89,0.00,OVC,,0.08,WeatherDisplay:10.37,2013-09-29 20:13:00,
2013-09-29 16:18:00,63.9,60.2,30.06,SW,225,1.4,1.4,88,0.00,OVC,,0.08,WeatherDisplay:10.37,2013-09-29 20:18:00,
2013-09-29 16:23:00,63.5,60.5,30.06,WSW,248,2.3,2.3,90,0.00,OVC,,0.08,WeatherDisplay:10.37,2013-09-29 20:23:00,
2013-09-29 16:28:00,63.5,60.2,30.06,South,180,2.3,2.3,89,0.00,OVC,,0.08,WeatherDisplay:10.37,2013-09-29 20:28:00,
2013-09-29 16:33:00,63.5,60.5,30.03,SW,225,2.2,2.2,90,0.00,OVC,,0.08,WeatherDisplay:10.37,2013-09-29 20:33:00,
2013-09-29 16:38:00,63.5,59.9,30.03,South,180,2.3,2.3,88,0.00,OVC,,0.08,WeatherDisplay:10.37,2013-09-29 20:38:00,
2013-09-29 16:43:00,63.9,60.2,30.03,South,180,2.3,2.3,88,0.00,OVC,,0.08,WeatherDisplay:10.37,2013-09-29 20:43:00,
2013-09-29 16:48:00,64.0,60.7,30.03,South,180,1.2,0.0,89,0.00,OVC,,0.08,WeatherDisplay:10.37,2013-09-29 20:48:00,
2013-09-29 16:53:00,64.2,60.9,30.03,SE,135,2.3,2.3,89,0.00,OVC,,0.08,WeatherDisplay:10.37,2013-09-29 20:53:00,
2013-09-29 16:58:00,64.4,60.8,30.03,South,180,2.3,2.3,88,0.00,OVC,,0.08,WeatherDisplay:10.37,2013-09-29 20:58:00,
2013-09-29 17:03:00,64.0,60.4,30.03,SW,225,2.6,2.6,88,0.00,OVC,,0.08,WeatherDisplay:10.37,2013-09-29 21:03:00,
2013-09-29 17:08:00,63.7,60.4,30.03,WSW,248,3.5,3.5,89,0.00,OVC,,0.08,WeatherDisplay:10.37,2013-09-29 21:08:00,
2013-09-29 17:13:00,64.0,60.7,30.03,SSW,202,1.4,1.4,89,0.00,OVC,,0.08,WeatherDisplay:10.37,2013-09-29 21:13:00,
2013-09-29 17:18:00,63.9,60.6,30.03,SSW,202,2.6,2.6,89,0.00,OVC,,0.08,WeatherDisplay:10.37,2013-09-29 21:18:00,
2013-09-29 17:23:00,63.7,60.4,30.03,WSW,248,2.4,2.4,89,0.00,OVC,,0.08,WeatherDisplay:10.37,2013-09-29 21:23:00,
2013-09-29 17:28:00,63.5,60.5,30.03,WSW,248,2.3,2.3,90,0.00,OVC,,0.08,WeatherDisplay:10.37,2013-09-29 21:28:00,
2013-09-29 17:33:00,63.5,60.8,30.03,SW,225,2.3,2.3,91,0.00,OVC,,0.08,WeatherDisplay:10.37,2013-09-29 21:33:00,
2013-09-29 17:38:00,63.5,60.5,30.03,SW,225,2.3,2.3,90,0.00,OVC,,0.08,WeatherDisplay:10.37,2013-09-29 21:38:00,
2013-09-29 17:43:00,63.5,60.5,30.03,West,270,2.3,2.3,90,0.00,OVC,,0.08,WeatherDisplay:10.37,2013-09-29 21:43:00,
2013-09-29 17:48:00,63.5,60.5,30.03,West,270,3.1,3.1,90,0.00,OVC,,0.08,WeatherDisplay:10.37,2013-09-29 21:48:00,
2013-09-29 17:53:00,63.5,60.8,30.03,WSW,248,2.3,2.3,91,0.00,OVC,,0.08,WeatherDisplay:10.37,2013-09-29 21:53:00,
2013-09-29 17:59:00,63.7,61.3,30.03,West,270,2.3,2.3,92,0.00,OVC,,0.08,WeatherDisplay:10.37,2013-09-29 21:59:00,
2013-09-29 18:04:00,63.7,60.7,30.06,WSW,248,3.5,3.5,90,0.00,OVC,,0.08,WeatherDisplay:10.37,2013-09-29 22:04:00,
2013-09-29 18:09:00,63.5,60.2,30.06,SW,225,2.9,2.9,89,0.00,OVC,,0.08,WeatherDisplay:10.37,2013-09-29 22:09:00,
2013-09-29 18:14:00,63.5,60.2,30.06,West,270,1.4,1.4,89,0.00,OVC,,0.08,WeatherDisplay:10.37,2013-09-29 22:14:00,
2013-09-29 18:19:00,63.5,60.2,30.06,SW,225,3.5,3.5,89,0.00,OVC,,0.08,WeatherDisplay:10.37,2013-09-29 22:19:00,
2013-09-29 18:25:00,63.3,60.0,30.06,West,270,3.5,3.5,89,0.00,OVC,,0.08,WeatherDisplay:10.37,2013-09-29 22:25:00,
2013-09-29 18:30:00,63.1,60.2,30.06,SW,225,2.4,2.4,90,0.00,OVC,,0.08,WeatherDisplay:10.37,2013-09-29 22:30:00,
2013-09-29 18:35:00,63.1,59.8,30.03,SW,225,2.6,2.6,89,0.00,-RA,,0.08,WeatherDisplay:10.37,2013-09-29 22:35:00,
2013-09-29 18:40:00,63.0,60.0,30.03,West,270,2.3,2.3,90,0.00,-RA,,0.08,WeatherDisplay:10.37,2013-09-29 22:40:00,
2013-09-29 18:46:00,63.1,60.2,30.03,SW,225,3.5,3.5,90,0.00,-RA,,0.08,WeatherDisplay:10.37,2013-09-29 22:46:00,
2013-09-29 18:51:00,63.1,60.2,30.03,SW,225,1.6,1.6,90,0.00,OVC,,0.08,WeatherDisplay:10.37,2013-09-29 22:51:00,
2013-09-29 18:56:00,63.1,60.2,30.03,SSW,202,1.2,0.0,90,0.00,OVC,,0.08,WeatherDisplay:10.37,2013-09-29 22:56:00,
2013-09-29 19:01:00,63.0,60.3,30.03,SW,225,1.2,1.4,91,0.00,OVC,,0.08,WeatherDisplay:10.37,2013-09-29 23:01:00,
2013-09-29 19:06:00,63.1,60.5,30.03,SW,225,0.0,0.0,91,0.00,OVC,,0.08,WeatherDisplay:10.37,2013-09-29 23:06:00,
2013-09-29 19:12:00,63.1,60.2,30.03,SW,225,0.0,0.0,90,0.00,OVC,,0.08,WeatherDisplay:10.37,2013-09-29 23:12:00,
2013-09-29 19:17:00,63.0,60.0,30.03,SW,225,0.0,0.0,90,0.00,OVC,,0.08,WeatherDisplay:10.37,2013-09-29 23:17:00,
2013-09-29 19:22:00,63.0,60.0,30.03,SW,225,0.0,0.0,90,0.00,OVC,,0.08,WeatherDisplay:10.37,2013-09-29 23:22:00,
2013-09-29 19:27:00,62.6,59.6,30.03,SW,225,0.0,0.0,90,0.00,OVC,,0.08,WeatherDisplay:10.37,2013-09-29 23:27:00,
2013-09-29 19:32:00,62.6,59.6,30.03,SW,225,0.0,0.0,90,0.00,OVC,,0.08,WeatherDisplay:10.37,2013-09-29 23:32:00,
2013-09-29 19:38:00,62.4,59.4,30.03,SW,225,0.0,0.0,90,0.00,OVC,,0.08,WeatherDisplay:10.37,2013-09-29 23:38:00,
2013-09-29 19:43:00,62.4,59.8,30.03,SW,225,0.0,0.0,91,0.00,OVC,,0.08,WeatherDisplay:10.37,2013-09-29 23:43:00,
2013-09-29 19:48:00,62.2,59.6,30.03,SW,225,0.0,0.0,91,0.00,OVC,,0.08,WeatherDisplay:10.37,2013-09-29 23:48:00,
2013-09-29 19:53:00,62.2,59.6,30.03,SW,225,0.0,0.0,91,0.00,OVC,,0.08,WeatherDisplay:10.37,2013-09-29 23:53:00,
2013-09-29 19:58:00,62.2,59.6,30.03,SW,225,0.0,0.0,91,0.00,OVC,,0.08,WeatherDisplay:10.37,2013-09-29 23:58:00,
2013-09-29 20:04:00,62.1,59.4,30.03,SW,225,0.0,0.0,91,0.00,OVC,,0.08,WeatherDisplay:10.37,2013-09-30 00:04:00,
2013-09-29 20:09:00,62.1,59.4,30.03,SW,225,0.0,0.0,91,0.00,OVC,,0.08,WeatherDisplay:10.37,2013-09-30 00:09:00,
2013-09-29 20:14:00,62.1,59.7,30.03,SW,225,0.0,0.0,92,0.00,OVC,,0.08,WeatherDisplay:10.37,2013-09-30 00:14:00,
2013-09-29 20:19:00,61.9,59.5,30.03,SW,225,0.0,0.0,92,0.00,OVC,,0.08,WeatherDisplay:10.37,2013-09-30 00:19:00,
2013-09-29 20:24:00,61.9,59.5,30.03,SW,225,0.0,0.0,92,0.00,OVC,,0.08,WeatherDisplay:10.37,2013-09-30 00:24:00,
2013-09-29 20:29:00,61.9,59.5,30.03,SW,225,0.0,0.0,92,0.00,OVC,,0.08,WeatherDisplay:10.37,2013-09-30 00:29:00,
2013-09-29 20:35:00,61.7,59.4,30.00,SW,225,0.0,0.0,92,0.00,OVC,,0.08,WeatherDisplay:10.37,2013-09-30 00:35:00,
2013-09-29 20:40:00,61.9,59.8,30.00,SW,225,0.0,0.0,93,0.00,OVC,,0.08,WeatherDisplay:10.37,2013-09-30 00:40:00,
2013-09-29 20:45:00,61.7,59.7,30.00,SW,225,0.0,0.0,93,0.00,OVC,,0.08,WeatherDisplay:10.37,2013-09-30 00:45:00,
2013-09-29 20:50:00,61.7,59.7,30.03,SW,225,0.0,0.0,93,0.00,OVC,,0.08,WeatherDisplay:10.37,2013-09-30 00:50:00,
2013-09-29 20:55:00,61.9,60.1,30.03,SE,135,0.0,0.0,94,0.00,OVC,,0.08,WeatherDisplay:10.37,2013-09-30 00:55:00,
2013-09-29 21:01:00,61.9,60.1,30.03,SE,135,0.0,0.0,94,0.00,OVC,,0.08,WeatherDisplay:10.37,2013-09-30 01:01:00,
2013-09-29 21:06:00,61.7,60.0,30.03,SE,135,0.0,0.0,94,0.00,OVC,,0.08,WeatherDisplay:10.37,2013-09-30 01:06:00,
2013-09-29 21:11:00,61.7,60.0,30.03,SE,135,0.0,0.0,94,0.00,OVC,,0.08,WeatherDisplay:10.37,2013-09-30 01:11:00,
2013-09-29 21:16:00,61.7,60.0,30.03,SE,135,0.0,0.0,94,0.00,OVC,,0.08,WeatherDisplay:10.37,2013-09-30 01:16:00,
2013-09-29 21:22:00,61.9,60.4,30.03,SE,135,0.0,0.0,95,0.00,OVC,,0.08,WeatherDisplay:10.37,2013-09-30 01:22:00,
2013-09-29 21:27:00,61.9,60.4,30.03,SE,135,0.0,0.0,95,0.00,OVC,,0.08,WeatherDisplay:10.37,2013-09-30 01:27:00,
2013-09-29 21:32:00,61.8,60.4,30.03,SE,135,0.0,0.0,95,0.00,OVC,OVC,0.08,WeatherDisplay:10.37,2013-09-30 01:32:00,
2013-09-29 21:37:00,61.7,60.3,30.03,SE,135,0.0,0.0,95,0.00,OVC,,0.08,WeatherDisplay:10.37,2013-09-30 01:37:00,
2013-09-29 21:42:00,61.7,60.3,30.03,SE,135,0.0,0.0,95,0.00,OVC,,0.08,WeatherDisplay:10.37,2013-09-30 01:42:00,
2013-09-29 21:47:00,61.7,60.5,30.03,SE,135,0.0,0.0,96,0.00,OVC,,0.08,WeatherDisplay:10.37,2013-09-30 01:47:00,
2013-09-29 21:53:00,61.9,61.0,30.03,SE,135,0.0,0.0,97,0.00,OVC,,0.08,WeatherDisplay:10.37,2013-09-30 01:53:00,
2013-09-29 21:58:00,61.9,61.0,30.03,SE,135,0.0,0.0,97,0.00,OVC,,0.08,WeatherDisplay:10.37,2013-09-30 01:58:00,
2013-09-29 22:03:00,61.9,61.0,30.06,SE,135,0.0,0.0,97,0.00,OVC,,0.08,WeatherDisplay:10.37,2013-09-30 02:03:00,
2013-09-29 22:08:00,61.9,61.0,30.06,SE,135,0.0,0.0,97,0.00,OVC,,0.08,WeatherDisplay:10.37,2013-09-30 02:08:00,
2013-09-29 22:13:00,61.9,61.0,30.06,SE,135,0.0,0.0,97,0.00,OVC,,0.08,WeatherDisplay:10.37,2013-09-30 02:13:00,
2013-09-29 22:19:00,61.9,61.0,30.03,SE,135,0.0,0.0,97,0.00,OVC,,0.08,WeatherDisplay:10.37,2013-09-30 02:19:00,
2013-09-29 22:24:00,61.9,61.0,30.03,SE,135,0.0,0.0,97,0.00,OVC,,0.08,WeatherDisplay:10.37,2013-09-30 02:24:00,
2013-09-29 22:29:00,61.9,61.0,30.03,SE,135,0.0,0.0,97,0.00,OVC,,0.08,WeatherDisplay:10.37,2013-09-30 02:29:00,
2013-09-29 22:34:00,61.9,61.0,30.03,SE,135,0.0,0.0,97,0.00,OVC,,0.08,WeatherDisplay:10.37,2013-09-30 02:34:00,
2013-09-29 22:39:00,61.9,61.0,30.03,SE,135,0.0,0.0,97,0.00,OVC,,0.08,WeatherDisplay:10.37,2013-09-30 02:39:00,
2013-09-29 22:45:00,61.9,61.0,30.03,SE,135,0.0,0.0,97,0.00,OVC,,0.08,WeatherDisplay:10.37,2013-09-30 02:45:00,
2013-09-29 22:50:00,61.9,61.0,30.06,SE,135,0.0,0.0,97,0.00,OVC,,0.08,WeatherDisplay:10.37,2013-09-30 02:50:00,
2013-09-29 22:55:00,61.9,61.0,30.06,SE,135,0.0,0.0,97,0.00,OVC,,0.08,WeatherDisplay:10.37,2013-09-30 02:55:00,
2013-09-29 23:00:00,61.9,61.0,30.06,SE,135,0.0,0.0,97,0.00,RA,,0.00,WeatherDisplay:10.37,2013-09-30 03:00:00,
2013-09-29 23:05:00,61.9,61.0,30.06,SE,135,0.0,0.0,97,0.00,RA,,0.00,WeatherDisplay:10.37,2013-09-30 03:05:00,
2013-09-29 23:11:00,61.9,61.0,30.06,SE,135,0.0,0.0,97,0.00,OVC,,0.00,WeatherDisplay:10.37,2013-09-30 03:11:00,
2013-09-29 23:16:00,61.9,61.0,30.06,SE,135,0.0,0.0,97,0.00,OVC,,0.00,WeatherDisplay:10.37,2013-09-30 03:16:00,
2013-09-29 23:21:00,61.9,61.0,30.03,SE,135,0.0,0.0,97,0.00,OVC,,0.00,WeatherDisplay:10.37,2013-09-30 03:21:00,